Showing default

LOPEN, 60473

Orbit data source: Space-Track

LOPEN, 60473 is an American payload satellite in SSO that was launched on Fri, 16 Aug 2024 UTC via an FALCON 9 launch vehicle from the Air Force Western Test Range (AFWTR). Payload-class satellites include a variety of spacecraft equipped with specific instruments for various scientific and technological missions. These include communications satellites like Starlink; space stations such as the ISS; scientific satellites like the Hubble; Earth observation satellites from companies like Planet Labs, Umbra, and HawkEye 360; GPS; miniature CubeSats for education and research; and military/defense satellites.

Loading next visibility...
Identifier
60473, 2024-149F
Orbit
SSO
Country
Flag of USUS
Related business
Manufacturer
ARRAY
Mission
Operational Commercial Technology
Bus & Motor
CUBESAT 1.5U, Unknown motor
Mass
1.83 kg wet, 1.83 kg dry
Launch date (UTC)
2024-08-16 (2 years ago)
Launch vehicle
FALCON 9
Launch site
Air Force Western Test Range (AFWTR)
Object type
Payload
Rocket body
Debris
Shape & HBR
Box, 0.1 m
Radar Cross Section
0.015 m², Medium (>0.1 m² and < 1m²)

Expand to show TLE details & history
Last TLE update: 1 day ago

TLE from 1 day ago
0 LOPEN
1 60473U 24149F   26264.49536239  .00011101  00000-0  26041-3 0  9991
2 60473  97.3725 348.7643 0000293 185.4710 174.6534 15.42230058117098
Epoch: 2026-09-21T11:53Z
TLE epoch observation values (Epoch: 2026-09-21T11:53:19.310Z)
Latitude
-0.00003°
Longitude
170.05948°
Altitude
442.849 km
Speed
7.646 km/s
True Right ascension
23h 15m 03s
True Declination
0° 00' 00"
Sunlit
Object was in full shadow at epoch
Visualization orbit readout
Latitude
Unknown
Longitude
Unknown
Altitude
Unknown
Speed
Unknown
Apparent Right ascension
Unknown
Apparent Declination
Unknown
Sunlit
N/A
Visualization observer readout
Local Sidereal Time
04:32:36
Azimuth
Unknown
Elevation
Unknown
Doppler factor
Unknown
Orbital elements
Apogee altitude
436.664 km
Perigee altitude
436.264 km
Semi-major axis
6,814.601 km
Eccentricity
0.00003
Inclination
97.3725°
RAAN
348.7643°
Arg. of periapsis
185.471°
True anomaly
174.65371°
Mean anomaly
174.6534°
Eccentric anomaly
174.65356°
Mean motion
3.85818 °/min
Orbital period
93.31 mins
BSTAR
0.00026041
Loading maneuver chart data...
Computing Atmospheric mass density...
Loading historical data...
Loading historical data...
Loading historical data...
Loading historical data...
Loading historical data...
Loading historical data...
Loading historical data...

Documentation

Showing up to 5 results
|